EW2175 Weather Reports


Display with metric or nautical units.
time (UTC)temp
F
wind
direction
speed
MPH
gust
MPH
rain 1hr
in
rain 24hr
in
rain mn
in
humidity
%
barometer
mb
20260507140024 63 321 2.0 6.0 0.00 0.52 0.27 65 1013.8
20260507134522 63 28 0.0 4.0 0.00 0.52 0.27 66 1013.7
20260507133018 62 314 1.0 6.0 0.00 0.52 0.27 69 1013.9
20260507131517 60 45 1.0 6.0 0.00 0.52 0.27 78 1014.0
20260507130024 57 7 1.0 6.0 0.00 0.52 0.27 82 1014.0
20260507124511 56 23 0.0 5.0 0.00 0.52 0.27 84 1014.0
20260507123008 56 7 3.0 8.0 0.00 0.52 0.27 84 1014.0
20260507121508 56 11 3.0 6.0 0.00 0.52 0.27 86 1014.0
20260507120011 56 327 1.0 5.0 0.00 0.52 0.27 87 1013.9
20260507114504 55 32 1.0 6.0 0.00 0.52 0.27 87 1014.0
20260507113004 55 329 3.0 5.0 0.00 0.52 0.27 86 1013.9
20260507111507 55 334 2.0 5.0 0.00 0.52 0.27 85 1013.9
20260507110005 57 331 2.0 5.0 0.00 0.52 0.27 82 1013.8
20260507104502 57 241 1.0 4.0 0.00 0.52 0.27 79 1013.9
20260507103059 57 296 0.0 3.0 0.00 0.52 0.27 83 1013.9
20260507101616 55 244 2.0 6.0 0.00 0.52 0.27 88 1014.0
20260507100050 54 252 0.0 6.0 0.00 0.52 0.27 91 1013.9
20260507094547 53 176 0.0 5.0 0.00 0.52 0.27 92 1014.0
20260507093046 52 217 2.0 6.0 0.00 0.52 0.27 94 1013.9
20260507091541 52 230 1.0 5.0 0.00 0.52 0.27 94 1013.8
20260507090038 52 183 2.0 6.0 0.00 0.52 0.27 95 1013.7
20260507084533 51 258 1.0 5.0 0.00 0.52 0.27 95 1013.7
20260507083033 51 261 3.0 6.0 0.00 0.52 0.27 96 1013.6
20260507081536 50 263 0.0 7.0 0.00 0.52 0.27 96 1013.5
20260507080027 50 229 1.0 4.0 0.00 0.52 0.27 96 1013.4
20260507074525 50 215 1.0 5.0 0.00 0.52 0.27 96 1013.3
20260507073021 50 223 1.0 7.0 0.01 0.52 0.27 96 1013.2
20260507071521 50 197 0.0 5.0 0.01 0.52 0.27 96 1013.2
20260507070017 49 184 2.0 5.0 0.01 0.52 0.27 96 1013.0
20260507064516 49 229 3.0 7.0 0.01 0.52 0.27 96 1013.0
20260507063009 49 228 1.0 7.0 0.01 0.51 0.26 96 1012.9
20260507061508 49 182 2.0 6.0 0.02 0.51 0.26 96 1012.8
20260507060005 49 201 1.0 7.0 0.02 0.51 0.26 96 1012.7
20260507054503 49 241 1.0 7.0 0.02 0.51 0.26 95 1012.6
20260507053002 49 228 2.0 5.0 0.02 0.50 0.25 95 1012.4
20260507051600 49 220 0.0 4.0 0.02 0.50 0.24 95 1012.3
20260507044556 49 194 1.0 6.0 0.03 0.49 0.24 95 1011.9
20260507043100 49 206 3.0 7.0 0.04 0.48 0.23 95 1011.7
20260507041602 49 246 3.0 7.0 0.05 0.47 0.22 95 1011.6
20260507040056 49 207 2.0 6.0 0.06 0.46 0.21 95 1011.5
20260507034555 49 233 5.0 11.0 0.06 0.46 0.20 94 1011.3
20260507033050 49 246 5.0 11.0 0.06 0.44 0.19 95 1011.2
20260507031546 49 175 3.0 10.0 0.06 0.43 0.17 94 1011.0
20260507030044 49 204 5.0 11.0 0.05 0.41 0.16 94 1011.0
20260507024542 49 229 6.0 13.0 0.05 0.39 0.14 94 1010.9
20260507023039 49 177 5.0 10.0 0.05 0.39 0.13 94 1010.9
20260507021538 49 196 4.0 12.0 0.05 0.37 0.12 94 1010.7
20260507020036 49 182 5.0 13.0 0.04 0.36 0.11 94 1010.6
20260507014548 49 194 5.0 10.0 0.03 0.35 0.09 93 1010.5
20260507013042 49 224 4.0 9.0 0.03 0.34 0.09 93 1010.5
20260507011537 49 232 4.0 10.0 0.02 0.32 0.07 93 1010.4
20260507010032 49 179 4.0 9.0 0.02 0.32 0.07 93 1010.3
20260507004525 49 198 5.0 10.0 0.02 0.31 0.06 93 1010.3
20260507003024 49 213 5.0 12.0 0.02 0.31 0.06 92 1010.2
20260507001522 49 187 5.0 12.0 0.02 0.30 0.05 92 1010.2
20260507000027 49 217 3.0 10.0 0.02 0.30 0.05 92 1010.2
20260506234518 49 229 3.0 10.0 0.02 0.28 0.04 92 1010.2
20260506233021 49 201 4.0 12.0 0.02 0.28 0.03 92 1010.3
20260506231515 49 169 3.0 10.0 0.02 0.28 0.03 92 1010.2
20260506230015 49 196 5.0 9.0 0.02 0.28 0.02 92 1010.2
20260506224511 49 208 5.0 15.0 0.02 0.28 0.02 91 1010.2
20260506223010 49 236 3.0 11.0 0.02 0.27 0.02 91 1010.1
20260506221509 49 178 3.0 12.0 0.01 0.26 0.01 91 1010.0
20260506220005 49 167 7.0 14.0 0.02 0.26 0.01 91 1009.9
20260506214502 49 182 5.0 11.0 0.02 0.25 0.25 92 1009.8
20260506213059 49 186 2.0 12.0 0.02 0.25 0.25 92 1009.7
20260506211558 50 158 5.0 15.0 0.03 0.25 0.25 92 1009.6
20260506210109 50 217 3.0 11.0 0.03 0.24 0.24 92 1009.6
20260506204554 50 156 3.0 9.0 0.03 0.24 0.24 92 1009.6
20260506203055 50 179 4.0 9.0 0.04 0.23 0.23 92 1009.6
20260506201551 50 188 3.0 14.0 0.05 0.22 0.22 92 1009.4
20260506200129 50 274 4.0 16.0 0.06 0.21 0.21 92 1009.3
20260506194547 50 160 5.0 10.0 0.06 0.20 0.20 92 1009.1
20260506193046 50 136 0.0 10.0 0.06 0.19 0.19 91 1009.0
20260506191547 50 177 3.0 10.0 0.06 0.17 0.17 91 1008.9
20260506190044 50 198 4.0 12.0 0.06 0.16 0.16 91 1008.7
20260506184540 50 118 6.0 13.0 0.06 0.14 0.14 91 1008.6
20260506183037 51 184 2.0 12.0 0.05 0.13 0.13 91 1008.3
20260506181538 51 212 4.0 13.0 0.04 0.11 0.11 91 1008.1
20260506180040 51 200 4.0 11.0 0.03 0.09 0.09 91 1008.0
20260506174531 51 144 5.0 15.0 0.03 0.09 0.09 91 1007.8
20260506173028 51 206 6.0 13.0 0.03 0.08 0.08 91 1007.6
20260506171543 51 161 3.0 11.0 0.03 0.07 0.07 91 1007.4
20260506170024 51 191 4.0 10.0 0.03 0.06 0.06 90 1007.3
20260506164523 52 250 5.0 12.0 0.04 0.06 0.06 90 1007.3
20260506163025 52 203 3.0 17.0 0.04 0.05 0.05 89 1007.3
20260506161534 52 236 3.0 12.0 0.04 0.04 0.04 88 1007.3
20260506160018 52 171 3.0 13.0 0.03 0.03 0.03 87 1007.2
20260506154515 52 130 4.0 16.0 0.02 0.02 0.02 85 1007.2
20260506153013 53 150 1.0 12.0 0.01 0.01 0.01 82 1007.1
20260506151512 53 209 4.0 12.0 0.00 0.00 0.00 81 1007.0
20260506150011 54 242 5.0 12.0 0.00 0.00 0.00 81 1006.9
20260506144511 54 182 6.0 11.0 0.00 0.03 0.00 81 1006.8
20260506143009 54 161 5.0 10.0 0.00 0.03 0.00 83 1006.8
20260506141506 54 225 3.0 12.0 0.00 0.03 0.00 83 1006.8